Date String (YYYY-MM-DD hh:mm:ss) UTC,Instrument flags,Ambient pressure (hPa),Sample flow (lpm),Bypass flow (lpm),Sample temperature (°C),Ambient temperature (°C),ASC tube jacket temperature (°C),LED temperature (°C),Box temperature (°C),Sample RH (%),Span deviation,Mass concentration (μg/m³),Mass concentration (μg/m³),Mass concentration (μg/m³)
DateTimeUTC,F1_M11,P_M11,Q1_M11,Q2_M11,T1_M11,T2_M11,T3_M11,T4_M11,T5_M11,U1_M11,ZSPAN_M11,X0_M11,X2_M11,X1_M11
2022-07-23 10:00:00,,0825.0,4.99,0.00,29.8,28.7,00.0,38.5,31.8,20.9,0000.0,0008.59,0004.60,0003.90
2022-07-23 10:01:00,,0824.9,5.00,0.00,29.8,28.8,00.0,38.5,31.8,20.8,0000.0,0008.47,0004.66,0003.96
2022-07-23 10:02:00,,0825.0,5.01,0.00,29.8,28.8,00.0,38.5,31.8,21.0,0000.0,0008.58,0004.69,0004.01
2022-07-23 10:03:00,,0824.9,5.00,0.00,29.9,28.4,00.0,38.5,31.8,21.2,0000.0,0008.77,0004.78,0004.08
2022-07-23 10:04:00,,0824.9,5.01,0.00,29.8,27.8,00.0,38.4,31.7,21.1,0000.0,0008.85,0004.87,0004.14
2022-07-23 10:05:00,,0824.9,4.99,0.00,29.8,27.6,00.0,38.4,31.6,20.9,0000.0,0009.12,0005.00,0004.20
2022-07-23 10:06:00,,0824.9,5.01,0.00,29.7,27.6,00.0,38.4,31.5,20.8,0000.0,0009.17,0005.03,0004.24
2022-07-23 10:07:00,,0825.0,4.99,0.00,29.7,27.7,00.0,38.4,31.5,21.1,0000.0,0009.56,0005.05,0004.31
2022-07-23 10:08:00,,0825.0,5.00,0.00,29.7,27.8,00.0,38.4,31.5,20.6,0000.0,0010.10,0005.12,0004.36
2022-07-23 10:09:00,,0825.1,5.00,0.00,29.7,28.0,00.0,38.4,31.5,20.3,0000.0,0010.32,0005.16,0004.39
2022-07-23 10:10:00,,0825.1,5.01,0.00,29.7,28.1,00.0,38.4,31.5,20.4,0000.0,0010.38,0005.20,0004.41
2022-07-23 10:11:00,,0825.1,5.00,0.00,29.7,28.2,00.0,38.5,31.6,20.2,0000.0,0010.32,0005.19,0004.40
2022-07-23 10:12:00,,0825.1,4.99,0.00,29.7,28.3,00.0,38.5,31.6,19.7,0000.0,0010.32,0005.19,0004.39
2022-07-23 10:13:00,,0825.1,5.00,0.00,29.7,28.4,00.0,38.5,31.7,19.4,0000.0,0010.21,0005.14,0004.36
2022-07-23 10:14:00,,0825.1,5.00,0.00,29.7,28.5,00.0,38.5,31.7,19.5,0000.0,0010.17,0005.11,0004.31
2022-07-23 10:15:00,,0825.1,5.00,0.00,29.8,28.6,00.0,38.5,31.7,19.5,0000.0,0010.27,0005.04,0004.26
2022-07-23 10:16:00,,0825.1,4.99,0.00,29.8,28.7,00.0,38.5,31.8,19.9,0000.0,0010.30,0004.91,0004.22
2022-07-23 10:17:00,,0825.2,5.00,0.00,29.8,28.7,00.0,38.5,31.8,20.3,0000.0,0010.63,0004.86,0004.19
2022-07-23 10:18:00,,0825.1,5.01,0.00,29.8,28.8,00.0,38.6,31.8,20.0,0000.0,0010.82,0004.79,0004.12
2022-07-23 10:19:00,,0825.1,5.00,0.00,29.9,28.8,00.0,38.6,31.9,20.0,0000.0,0010.25,0004.71,0004.07
2022-07-23 10:20:00,,0825.1,5.00,0.00,29.9,28.1,00.0,38.5,31.8,20.1,0000.0,0010.37,0004.69,0004.05
2022-07-23 10:21:00,,0825.1,5.00,0.00,29.8,27.7,00.0,38.5,31.7,20.0,0000.0,0010.58,0004.69,0004.04
2022-07-23 10:22:00,,0825.1,4.99,0.00,29.8,27.6,00.0,38.5,31.6,20.1,0000.0,0010.47,0004.65,0004.02
2022-07-23 10:23:00,,0825.1,5.00,0.00,29.7,27.7,00.0,38.5,31.5,20.2,0000.0,0010.38,0004.63,0003.99
2022-07-23 10:24:00,,0825.0,5.01,0.00,29.7,27.8,00.0,38.5,31.5,20.0,0000.0,0010.43,0004.61,0003.96
2022-07-23 10:25:00,,0825.0,5.00,0.00,29.7,27.9,00.0,38.5,31.5,20.0,0000.0,0010.27,0004.57,0003.95
2022-07-23 10:26:00,,0825.0,5.00,0.00,29.7,28.0,00.0,38.5,31.6,19.9,0000.0,0010.15,0004.53,0003.93
2022-07-23 10:27:00,,0825.0,5.00,0.00,29.7,28.2,00.0,38.5,31.6,19.8,0000.0,0009.69,0004.51,0003.92
2022-07-23 10:28:00,,0825.0,5.00,0.00,29.7,28.3,00.0,38.5,31.6,19.4,0000.0,0009.33,0004.49,0003.89
2022-07-23 10:29:00,,0825.0,5.00,0.00,29.8,28.4,00.0,38.5,31.7,19.3,0000.0,0008.73,0004.48,0003.87
2022-07-23 10:30:00,,0825.0,5.01,0.00,29.8,28.5,00.0,38.5,31.7,19.1,0000.0,0008.51,0004.47,0003.85
2022-07-23 10:31:00,,0825.0,4.99,0.00,29.8,28.6,00.0,38.5,31.7,19.2,0000.0,0008.48,0004.43,0003.82
2022-07-23 10:32:00,,0825.0,5.00,0.00,29.8,28.7,00.0,38.6,31.8,19.0,0000.0,0008.68,0004.38,0003.79
2022-07-23 10:33:00,,0825.1,5.00,0.00,29.8,28.7,00.0,38.6,31.8,18.9,0000.0,0009.03,0004.35,0003.75
2022-07-23 10:34:00,,0825.0,5.00,0.00,29.9,28.8,00.0,38.6,31.8,18.9,0000.0,0009.06,0004.32,0003.74
2022-07-23 10:35:00,,0825.0,4.99,0.00,29.9,28.4,00.0,38.6,31.8,18.8,0000.0,0009.08,0004.34,0003.73
2022-07-23 10:36:00,,0824.9,5.00,0.00,29.9,27.4,00.0,38.5,31.7,18.8,0000.0,0009.03,0004.32,0003.72
2022-07-23 10:37:00,,0824.9,5.01,0.00,29.8,27.0,00.0,38.4,31.5,18.8,0000.0,0008.94,0004.31,0003.70
2022-07-23 10:38:00,,0824.9,5.00,0.00,29.7,27.0,00.0,38.4,31.4,18.9,0000.0,0008.98,0004.29,0003.67
2022-07-23 10:39:00,,0824.9,5.00,0.00,29.6,27.1,00.0,38.4,31.3,18.9,0000.0,0009.00,0004.29,0003.66
2022-07-23 10:40:00,,0824.9,5.00,0.00,29.6,27.2,00.0,38.4,31.3,18.9,0000.0,0009.03,0004.31,0003.67
2022-07-23 10:41:00,,0824.9,5.00,0.00,29.6,27.4,00.0,38.4,31.3,19.0,0000.0,0009.09,0004.32,0003.67
2022-07-23 10:42:00,,0824.9,4.99,0.00,29.5,27.6,00.0,38.4,31.3,19.1,0000.0,0008.94,0004.34,0003.66
2022-07-23 10:43:00,,0824.9,5.00,0.00,29.5,27.8,00.0,38.4,31.4,19.2,0000.0,0008.61,0004.34,0003.65
2022-07-23 10:44:00,,0824.9,5.00,0.00,29.6,27.9,00.0,38.4,31.4,19.1,0000.0,0009.17,0004.34,0003.65
2022-07-23 10:45:00,,0824.9,5.00,0.00,29.6,28.0,00.0,38.4,31.4,18.9,0000.0,0009.22,0004.33,0003.64
2022-07-23 10:46:00,,0824.9,4.99,0.00,29.6,28.2,00.0,38.4,31.5,18.8,0000.0,0009.13,0004.31,0003.63
2022-07-23 10:47:00,,0824.9,5.01,0.00,29.6,28.3,00.0,38.4,31.5,18.8,0000.0,0009.27,0004.29,0003.61
2022-07-23 10:48:00,,0824.8,5.00,0.00,29.6,28.3,00.0,38.4,31.6,18.8,0000.0,0009.45,0004.31,0003.61
2022-07-23 10:49:00,,0824.8,5.00,0.00,29.7,28.4,00.0,38.4,31.6,18.7,0000.0,0009.56,0004.35,0003.62
2022-07-23 10:50:00,,0824.8,4.99,0.00,29.7,28.5,00.0,38.4,31.6,18.8,0000.0,0009.56,0004.36,0003.63
2022-07-23 10:51:00,,0824.8,5.01,0.00,29.7,28.6,00.0,38.4,31.7,18.7,0000.0,0009.61,0004.36,0003.65
2022-07-23 10:52:00,,0824.8,5.01,0.00,29.7,28.6,00.0,38.5,31.7,18.6,0000.0,0009.56,0004.34,0003.66
2022-07-23 10:53:00,,0824.8,4.99,0.00,29.8,28.7,00.0,38.5,31.8,18.6,0000.0,0009.47,0004.32,0003.67
2022-07-23 10:54:00,,0824.8,5.00,0.00,29.8,28.8,00.0,38.5,31.8,18.5,0000.0,0009.39,0004.34,0003.68
2022-07-23 10:55:00,,0824.8,5.01,0.00,29.8,28.8,00.0,38.5,31.8,18.7,0000.0,0008.66,0004.38,0003.70
2022-07-23 10:56:00,,0824.9,5.01,0.00,29.9,28.8,00.0,38.6,31.9,18.6,0000.0,0008.61,0004.39,0003.72
2022-07-23 10:57:00,,0824.8,4.99,0.00,29.9,28.3,00.0,38.5,31.8,18.8,0000.0,0008.87,0004.47,0003.74
2022-07-23 10:58:00,,0824.9,5.00,0.00,29.8,27.3,00.0,38.4,31.6,18.8,0000.0,0008.80,0004.50,0003.77
2022-07-23 10:59:00,,0824.8,4.99,0.00,29.8,26.9,00.0,38.4,31.5,18.9,0000.0,0008.55,0004.47,0003.78
